Regional Weather Roundup
Issued by NWS

Home | Current Version | Previous Version | Graphics & Text | Print | Product List | Glossary On
Versions: 1 2 3 4 5 6 7 8 9 10 11 12 13 14 15 16 17 18 19 20 21 22 23 24 25 26 27 28 29 30 31 32 33 34 35 36 37 38 39 40 41 42 43 44 45 46 47 48 49 50
000
ASUS43 KOAX 010610
RWRNE

WEATHER ROUNDUP FOR NEBRASKA
NATIONAL WEATHER SERVICE OMAHA NE
100 AM CDT WED JUL 01 2015

NOTES: SATELLITE DATA IS BEING USED TO AUGMENT CLOUD COVER ABOVE
       12000 FEET.
       "FAIR" INDICATES FEW OR NO CLOUDS BELOW 12,000 FEET WITH NO
       SIGNIFICANT WEATHER AND/OR OBSTRUCTIONS TO VISIBILITY.

  * THESE STATIONS DO NOT REPORT WEATHER SUCH AS RAIN...SNOW OR FOG.

NEZ001>004-019>022-054>056-010700-
NEBRASKA PANHANDLE

CITY           SKY/WX    TMP DP  RH WIND       PRES   REMARKS
SCOTTSBLUFF    CLOUDY    73  59  61 NW10      30.02
6HR MIN TEMP:  73; 6HR MAX TEMP:  95;

ALLIANCE       MOCLDY    71  66  84 N9        29.97
6HR MIN TEMP:  71; 6HR MAX TEMP:  87;

CHADRON        CLEAR     66  64  93 W3        29.94
6HR MIN TEMP:  66; 6HR MAX TEMP:  90;

KIMBALL          N/A    N/A N/A N/A MISG        N/A
SIDNEY         LGT RAIN  71  60  68 W13       30.03
6HR MIN TEMP:  70; 6HR MAX TEMP:  91; 6HR PCP: TRACE;

$$

NEZ057>060-069>072-079>082-010700-
SOUTHWEST NEBRASKA

CITY           SKY/WX    TMP DP  RH WIND       PRES   REMARKS
NORTH PLATTE   MOCLDY    73  65  75 E13       29.87
6HR MIN TEMP:  73; 6HR MAX TEMP:  94; 6HR PCP: TRACE;

IMPERIAL       CLOUDY    76  61  59 N6        29.89
6HR MIN TEMP:  73; 6HR MAX TEMP:  97;

LEXINGTON      MOCLDY    74  69  82 E14       29.86R
MCCOOK         MOCLDY    76  59  55 SW3       29.83
6HR MIN TEMP:  76; 6HR MAX TEMP:  99;

OGALLALA       CLOUDY    69  63  81 CALM      29.88S
$$

NEZ005>010-023>029-035>040-094-010700-
NORTH CENTRAL NEBRASKA

CITY           SKY/WX    TMP DP  RH WIND       PRES   REMARKS
VALENTINE      CLEAR     66  61  84 S7        29.90
6HR MIN TEMP:  66; 6HR MAX TEMP:  81; 6HR PCP: TRACE;

AINSWORTH      MOCLDY    67  61  80 SE8       29.91R
BROKEN BOW     PTCLDY    68  61  78 E9        29.89
6HR MIN TEMP:  68; 6HR MAX TEMP:  90;

O`NEILL        MOCLDY    68  64  85 SE6       29.89R
ORD            MOCLDY    69  61  75 SE12      29.87
6HR MIN TEMP:  69; 6HR MAX TEMP:  80;

THEDFORD       PTCLDY    67  64  87 E6        29.91S
$$

NEZ041-046>049-061>064-073>077-083>087-010700-
SOUTH CENTRAL NEBRASKA

CITY           SKY/WX    TMP DP  RH WIND       PRES   REMARKS
GRAND ISLAND   CLOUDY    71  62  73 E20G28    29.88
6HR MIN TEMP:  70; 6HR MAX TEMP:  83; 6HR PCP: TRACE;

AURORA         CLOUDY    70  63  78 E29G35    29.86F
HASTINGS       CLOUDY    72  64  76 E17G25    29.87
6HR MIN TEMP:  72; 6HR MAX TEMP:  89;

HEBRON         CLOUDY    76  66  71 E8        29.80F
HOLDREGE       MOCLDY    73  68  82 NE10      29.85R
KEARNEY *      CLOUDY    72  63  73 NE18G24   29.86R
YORK           LGT RAIN  68  64  88 E23G37    29.88F
$$

NEZ011>018-030>034-042>045-010700-
NORTHEAST NEBRASKA

CITY           SKY/WX    TMP DP  RH WIND       PRES   REMARKS
NORFOLK        MOCLDY    67  64  90 SE10      29.88F
6HR MIN TEMP:  67; 6HR MAX TEMP:  75; 6HR PCP:  0.17;

ALBION         CLOUDY    67  61  80 SE12      29.89F
BLAIR          LGT RAIN  67  64  89 S10       29.90F
COLUMBUS *     CLOUDY   N/A N/A N/A SE14G22   29.90F
FREMONT        LGT RAIN  68  66  92 SE16      29.89F
TEKAMAH        CLOUDY    69  67  93 E5        29.90  FOG
6HR MIN TEMP:  69; 6HR MAX TEMP:  75; 6HR PCP:  0.05;

WAYNE          CLOUDY    67  65  94 SE5       29.91S
$$

NEZ050>053-065>068-078-088>093-010700-
SOUTHEAST NEBRASKA

CITY           SKY/WX    TMP DP  RH WIND       PRES   REMARKS
LINCOLN        LGT RAIN  70  65  84 NE13      29.93
6HR MIN TEMP:  70; 6HR MAX TEMP:  79; 6HR PCP:  0.02;

OMAHA EPPLEY   TSTM      70  66  87 S9        29.93R FOG
6HR MIN TEMP:  70; 6HR MAX TEMP:  75; 6HR PCP:  0.09;

BEATRICE       CLOUDY    74  64  71 NE14      29.85R
FALLS CITY     CLOUDY    73  64  73 E12G21    29.85
6HR MIN TEMP:  73; 6HR MAX TEMP:  79; 6HR PCP: TRACE;

NEBRASKA CITY  CLOUDY    71  63  75 NE10      29.94R
PLATTSMOUTH    RAIN      68  65  89 NE6       29.97R
$$

NEZ044-045-051>053-067-010700-
OMAHA AREA

CITY           SKY/WX    TMP DP  RH WIND       PRES   REMARKS
OMAHA EPPLEY   TSTM      70  66  87 S9        29.93R FOG
6HR MIN TEMP:  70; 6HR MAX TEMP:  75; 6HR PCP:  0.09;

BLAIR          LGT RAIN  67  64  89 S10       29.90F
FREMONT        LGT RAIN  68  66  92 SE16      29.89F
MILLARD        RAIN      69  66  91 SE5       29.94F
OFFUTT AFB     RAIN      68  66  94 E2        29.94S FOG
PLATTSMOUTH    RAIN      68  65  89 NE6       29.97R
WAHOO          LGT RAIN  69  65  87 SE14      29.92F
$$


USA.gov is the U.S. government's official web portal to all federal, state and local government web resources and services.